User: anonymous   Login
Location: Unspecified
(0.0000°N, 0.0000°E)
Time: 10:10:18
(UTC+00:00)
Language:

PLEIADES 1B - Orbit

View from above orbital plane
View from above orbital plane
View from above satellite
View from above satellite

Ground track
Ground track

The orbit data is extracted from the following two-line orbital elements,

1 39019U 12068A   14352.79975331  .00000929  00000-0  20985-3 0  3641
2 39019 098.1839 065.1432 0001095 106.5251 253.6010 14.58526286108865
Epoch (UTC): 18 December 2014 19:11:38
Eccentricity: 0.0001095
inclination: 98.1839°
perigee height: 697 km
apogee height: 699 km
right ascension of ascending node: 65.1432°
argument of perigee: 106.5251°
revolutions per day: 14.58526286
mean anomaly at epoch: 253.6010°
orbit number at epoch: 10886

The dashed part of the orbit path shows where the satellite is in the earth's shadow,  

DLR